Location: Caltech
(34.1382°N, 118.1253°W)
Time: 20:19:18
(UTC-07:00)

Cosmos 2084 - Visible Passes

Search period start: 23 April 2014 00:00
Search period end: 03 May 2014 00:00
Orbit: 578 x 624 km, 62.8° (Epoch: 23 April)

Date Brightness Start Highest point End Pass type
(mag) Time Alt. Az. Time Alt. Az. Time Alt. Az.
23 Apr 6.4 02:50:31 10° N 02:53:14 16° NE 02:55:56 10° E visible
23 Apr 3.5 04:28:54 10° NW 04:33:17 55° WSW 04:37:36 10° SSE visible
23 Apr 6.7 20:13:17 10° WNW 20:15:28 13° NW 20:17:40 10° NNW visible
24 Apr 5.7 03:01:08 10° N 03:03:54 24° NNE 03:03:54 24° NNE visible
25 Apr 6.2 03:12:11 10° NNW 03:12:44 13° NNW 03:12:44 13° NNW visible
